Simultaneous Nadir Overpasses (SNOs) Predictions

Prediction of SNOs between GOES-15 and LANDSAT-8 Satellite Orbit:

Table of predicted SNOs for the next 14.0 days since TLE Epoch: 11/23/2024
Index Date Time (GOES-15) GOES-15 Lat,Lon LANDSAT-8 Lat,Lon Distance(km) Time Diff (sec)
1 11/24/2024 18:08:35 0.17, 61.66 0.06, 61.27 45.14 80
2 11/26/2024 17:53:45 0.17, 61.64 0.71, 64.22 293.53 80
3 11/27/2024 06:15:01 -0.16, 61.56 0.37, 59.06 284.45 80
4 11/29/2024 06:05:30 -0.16, 61.54 -0.26, 62.01 54.12 80
5 12/01/2024 05:53:19 -0.15, 61.52 -0.92, 64.97 392.28 80
6 12/01/2024 18:14:42 0.14, 61.58 -0.25, 59.79 203.75 80
7 12/03/2024 17:59:50 0.14, 61.57 0.40, 62.75 133.44 80
8 12/04/2024 06:21:04 -0.13, 61.52 0.72, 57.59 447.13 80
9 12/05/2024 17:47:37 0.13, 61.57 1.01, 65.71 470.53 80
10 12/06/2024 06:08:51 -0.12, 61.52 0.10, 60.56 109.78 80
